| time (UTC) | temp C | wind direction | speed KPH | gust KPH | rain 1hr cm | rain 24hr cm | rain mn cm | humidity % | barometer mb |
| 20260507224006 | 8 | 168 | 33.8 | 38.6 | 0.00 | 0.00 | 0.00 | 56 | 1017.2 |
| 20260507222005 | 8 | 163 | 29.0 | 32.2 | 0.00 | 0.00 | 0.00 | 67 | 1017.0 |
| 20260507221006 | 7 | 159 | 25.7 | 27.4 | 0.00 | 0.00 | 0.00 | 67 | 1017.1 |
| 20260507220006 | 7 | 157 | 30.6 | 38.6 | 0.00 | 0.00 | 0.00 | 65 | 1017.1 |
| 20260507215006 | 7 | 161 | 29.0 | 37.0 | 0.00 | 0.00 | 0.00 | 66 | 1017.1 |
| 20260507214006 | 7 | 162 | 27.4 | 32.2 | 0.00 | 0.00 | 0.00 | 63 | 1017.0 |
| 20260507213006 | 7 | 165 | 29.0 | 32.2 | 0.00 | 0.00 | 0.00 | 63 | 1017.1 |
| 20260507212006 | 7 | 163 | 27.4 | 29.0 | 0.00 | 0.00 | 0.00 | 61 | 1017.3 |
| 20260507210007 | 7 | 185 | 27.4 | 32.2 | 0.00 | 0.00 | 0.00 | 62 | 1017.4 |
| 20260507205006 | 8 | 193 | 25.7 | 29.0 | 0.00 | 0.00 | 0.00 | 59 | 1017.6 |
| 20260507204006 | 8 | 194 | 22.5 | 25.7 | 0.00 | 0.00 | 0.00 | 59 | 1017.6 |
| 20260507203006 | 8 | 188 | 22.5 | 25.7 | 0.00 | 0.00 | 0.00 | 66 | 1017.6 |
| 20260507202006 | 8 | 185 | 27.4 | 33.8 | 0.00 | 0.00 | 0.00 | 59 | 1017.4 |
| 20260507201006 | 8 | 187 | 32.2 | 33.8 | 0.00 | 0.00 | 0.00 | 60 | 1017.7 |
| 20260507194006 | 8 | 174 | 27.4 | 32.2 | 0.00 | 0.00 | 0.00 | 66 | 1017.6 |
| 20260507193006 | 8 | 165 | 27.4 | 29.0 | 0.00 | 0.00 | 0.00 | 65 | 1017.6 |
| 20260507192006 | 8 | 171 | 24.1 | 27.4 | 0.00 | 0.00 | 0.00 | 66 | 1017.4 |
| 20260507191006 | 8 | 175 | 22.5 | 24.1 | 0.00 | 0.00 | 0.00 | 68 | 1017.4 |
| 20260507185006 | 8 | 165 | 22.5 | 24.1 | 0.00 | 0.00 | 0.00 | 71 | 1017.4 |
| 20260507184006 | 8 | 175 | 20.9 | 22.5 | 0.00 | 0.00 | 0.00 | 73 | 1017.2 |
| 20260507183006 | 8 | 169 | 19.3 | 20.9 | 0.00 | 0.00 | 0.00 | 72 | 1017.1 |
| 20260507182007 | 8 | 165 | 19.3 | 20.9 | 0.00 | 0.00 | 0.00 | 70 | 1017.1 |
| 20260507181006 | 8 | 147 | 19.3 | 20.9 | 0.00 | 0.00 | 0.00 | 68 | 1016.7 |
| 20260507175006 | 9 | 161 | 17.7 | 24.1 | 0.00 | 0.00 | 0.00 | 70 | 1016.9 |
| 20260507174006 | 8 | 168 | 19.3 | 20.9 | 0.00 | 0.00 | 0.00 | 70 | 1016.7 |
| 20260507173006 | 8 | 165 | 19.3 | 24.1 | 0.00 | 0.00 | 0.00 | 71 | 1016.8 |
| 20260507172006 | 9 | 145 | 20.9 | 24.1 | 0.00 | 0.00 | 0.00 | 69 | 1016.9 |
| 20260507171006 | 9 | 144 | 19.3 | 20.9 | 0.00 | 0.00 | 0.00 | 69 | 1017.2 |
| 20260507165006 | 10 | 147 | 20.9 | 22.5 | 0.00 | 0.00 | 0.00 | 69 | 1016.9 |
| 20260507164006 | 10 | 149 | 16.1 | 20.9 | 0.00 | 0.00 | 0.00 | 67 | 1017.0 |
| 20260507163007 | 10 | 154 | 12.9 | 14.5 | 0.00 | 0.00 | 0.00 | 65 | 1017.0 |
| 20260507161006 | 10 | 148 | 11.3 | 12.9 | 0.00 | 0.00 | 0.00 | 65 | 1017.1 |
| 20260507160006 | 10 | 148 | 11.3 | 14.5 | 0.00 | 0.00 | 0.00 | 65 | 1017.0 |
| 20260507155006 | 10 | 149 | 14.5 | 14.5 | 0.00 | 0.00 | 0.00 | 66 | 1017.1 |
| 20260507154008 | 11 | 159 | 12.9 | 17.7 | 0.00 | 0.00 | 0.00 | 65 | 1017.4 |
| 20260507153006 | 11 | 158 | 16.1 | 17.7 | 0.00 | 0.00 | 0.00 | 64 | 1017.1 |
| 20260507152006 | 11 | 148 | 17.7 | 20.9 | 0.00 | 0.00 | 0.00 | 66 | 1017.1 |
| 20260507151006 | 11 | 148 | 16.1 | 20.9 | 0.00 | 0.00 | 0.00 | 66 | 1017.1 |
| 20260507150006 | 11 | 154 | 17.7 | 17.7 | 0.00 | 0.00 | 0.00 | 64 | 1017.3 |
| 20260507145006 | 11 | 153 | 16.1 | 17.7 | 0.00 | 0.00 | 0.00 | 64 | 1017.2 |
| 20260507144007 | 11 | 155 | 16.1 | 22.5 | 0.00 | 0.00 | 0.00 | 61 | 1017.3 |
| 20260507143006 | 11 | 154 | 16.1 | 17.7 | 0.00 | 0.00 | 0.00 | 60 | 1017.3 |
| 20260507141007 | 12 | 154 | 17.7 | 24.1 | 0.00 | 0.00 | 0.00 | 56 | 1017.0 |
| 20260507140006 | 12 | 143 | 20.9 | 27.4 | 0.00 | 0.00 | 0.00 | 60 | 1017.1 |
| 20260507135005 | 12 | 155 | 17.7 | 20.9 | 0.00 | 0.00 | 0.00 | 59 | 1017.3 |
| 20260507134005 | 13 | 150 | 16.1 | 22.5 | 0.00 | 0.00 | 0.00 | 53 | 1017.4 |
| 20260507133005 | 12 | 153 | 20.9 | 29.0 | 0.00 | 0.00 | 0.00 | 57 | 1017.3 |
| 20260507132006 | 12 | 154 | 25.7 | 33.8 | 0.00 | 0.00 | 0.00 | 56 | 1017.3 |
| 20260507131006 | 13 | 160 | 32.2 | 37.0 | 0.00 | 0.00 | 0.00 | 55 | 1017.3 |
| 20260507125006 | 13 | 146 | 22.5 | 33.8 | 0.00 | 0.00 | 0.00 | 53 | 1017.3 |
| 20260507124006 | 14 | 141 | 17.7 | 24.1 | 0.00 | 0.00 | 0.00 | 50 | 1017.3 |
| 20260507123006 | 12 | 157 | 24.1 | 35.4 | 0.00 | 0.00 | 0.00 | 51 | 1017.3 |
| 20260507120006 | 12 | 173 | 19.3 | 24.1 | 0.00 | 0.00 | 0.00 | 52 | 1017.6 |
| 20260507114006 | 12 | 162 | 30.6 | 33.8 | 0.00 | 0.00 | 0.00 | 50 | 1017.6 |
| 20260507112009 | 12 | 149 | 30.6 | 38.6 | 0.00 | 0.00 | 0.00 | 48 | 1017.6 |
| 20260507111005 | 12 | 155 | 24.1 | 29.0 | 0.00 | 0.00 | 0.00 | 52 | 1017.6 |
| 20260507110005 | 11 | 167 | 22.5 | 27.4 | 0.00 | 0.00 | 0.00 | 52 | 1017.8 |
| 20260507105006 | 11 | 165 | 27.4 | 29.0 | 0.00 | 0.00 | 0.00 | 50 | 1017.8 |
| 20260507104006 | 12 | 152 | 22.5 | 27.4 | 0.00 | 0.00 | 0.00 | 51 | 1017.9 |
| 20260507103006 | 12 | 157 | 17.7 | 24.1 | 0.00 | 0.00 | 0.00 | 55 | 1018.1 |
| 20260507102007 | 11 | 147 | 19.3 | 24.1 | 0.00 | 0.00 | 0.00 | 56 | 1018.1 |
| 20260507101006 | 11 | 156 | 19.3 | 22.5 | 0.00 | 0.00 | 0.00 | 57 | 1018.1 |
| 20260507100006 | 11 | 167 | 17.7 | 22.5 | 0.00 | 0.00 | 0.00 | 57 | 1017.9 |
| 20260507094005 | 11 | 159 | 22.5 | 25.7 | 0.00 | 0.00 | 0.00 | 59 | 1018.0 |
| 20260507093006 | 11 | 148 | 20.9 | 24.1 | 0.00 | 0.00 | 0.00 | 57 | 1018.0 |
| 20260507092006 | 11 | 154 | 19.3 | 20.9 | 0.00 | 0.00 | 0.00 | 58 | 1017.9 |
| 20260507091006 | 12 | 149 | 17.7 | 20.9 | 0.00 | 0.00 | 0.00 | 57 | 1017.9 |
| 20260507090006 | 12 | 149 | 19.3 | 22.5 | 0.00 | 0.00 | 0.00 | 54 | 1017.6 |
| 20260507085006 | 11 | 158 | 19.3 | 22.5 | 0.00 | 0.00 | 0.00 | 59 | 1017.9 |
| 20260507082006 | 10 | 166 | 17.7 | 20.9 | 0.00 | 0.00 | 0.00 | 63 | 1018.0 |
| 20260507081006 | 10 | 165 | 19.3 | 20.9 | 0.00 | 0.00 | 0.00 | 62 | 1017.9 |
| 20260507075005 | 11 | 172 | 17.7 | 20.9 | 0.00 | 0.00 | 0.00 | 62 | 1017.5 |
| 20260507073006 | 11 | 168 | 17.7 | 20.9 | 0.00 | 0.00 | 0.00 | 61 | 1017.4 |
| 20260507072006 | 11 | 158 | 19.3 | 24.1 | 0.00 | 0.00 | 0.00 | 61 | 1017.6 |
| 20260507071006 | 11 | 169 | 19.3 | 22.5 | 0.00 | 0.00 | 0.00 | 64 | 1017.6 |
| 20260507065006 | 12 | 183 | 12.9 | 14.5 | 0.00 | 0.00 | 0.00 | 65 | 1017.6 |
| 20260507064006 | 11 | 162 | 14.5 | 17.7 | 0.00 | 0.00 | 0.00 | 65 | 1017.6 |
| 20260507063006 | 11 | 163 | 17.7 | 20.9 | 0.00 | 0.00 | 0.00 | 66 | 1017.7 |
| 20260507062006 | 11 | 156 | 12.9 | 17.7 | 0.00 | 0.00 | 0.00 | 64 | 1017.6 |
| 20260507061006 | 11 | 162 | 8.0 | 11.3 | 0.00 | 0.00 | 0.00 | 64 | 1017.7 |
| 20260507060006 | 10 | 177 | 9.7 | 12.9 | 0.00 | 0.00 | 0.00 | 67 | 1017.8 |
| 20260507054005 | 10 | 179 | 11.3 | 12.9 | 0.00 | 0.00 | 0.00 | 68 | 1017.7 |
| 20260507052005 | 10 | 174 | 12.9 | 14.5 | 0.00 | 0.00 | 0.00 | 62 | 1017.5 |
| 20260507051006 | 8 | 199 | 11.3 | 14.5 | 0.00 | 0.00 | 0.00 | 64 | 1015.9 |
| 20260507045005 | 8 | 199 | 11.3 | 14.5 | 0.00 | 0.00 | 0.00 | 64 | 1015.9 |
| 20260507044005 | 8 | 199 | 11.3 | 14.5 | 0.00 | 0.00 | 0.00 | 64 | 1015.9 |
| 20260507043005 | 8 | 199 | 11.3 | 14.5 | 0.00 | 0.00 | 0.00 | 64 | 1015.9 |
| 20260507042005 | 8 | 199 | 11.3 | 14.5 | 0.00 | 0.00 | 0.00 | 64 | 1015.9 |
| 20260507041005 | 8 | 199 | 11.3 | 14.5 | 0.00 | 0.00 | 0.00 | 64 | 1015.9 |
| 20260507040005 | 8 | 199 | 11.3 | 14.5 | 0.00 | 0.00 | 0.00 | 64 | 1015.9 |
| 20260507035005 | 8 | 199 | 11.3 | 14.5 | 0.00 | 0.00 | 0.00 | 64 | 1015.9 |
| 20260507034005 | 8 | 199 | 11.3 | 14.5 | 0.00 | 0.00 | 0.00 | 64 | 1015.9 |
| 20260507033006 | 8 | 199 | 11.3 | 14.5 | 0.00 | 0.00 | 0.00 | 64 | 1015.9 |
| 20260507032006 | 8 | 199 | 11.3 | 14.5 | 0.00 | 0.00 | 0.00 | 64 | 1015.9 |
| 20260507031006 | 8 | 199 | 11.3 | 14.5 | 0.00 | 0.00 | 0.00 | 64 | 1015.9 |
| 20260507030006 | 8 | 199 | 11.3 | 14.5 | 0.00 | 0.00 | 0.00 | 64 | 1015.9 |
| 20260507025006 | 8 | 199 | 11.3 | 14.5 | 0.00 | 0.00 | 0.00 | 64 | 1015.9 |
| 20260507024006 | 8 | 199 | 11.3 | 14.5 | 0.00 | 0.00 | 0.00 | 64 | 1015.9 |
| 20260507022006 | 8 | 199 | 11.3 | 14.5 | 0.00 | 0.00 | 0.00 | 64 | 1015.9 |
| 20260507021006 | 8 | 199 | 11.3 | 14.5 | 0.00 | 0.00 | 0.00 | 64 | 1015.9 |
| 20260507020006 | 8 | 199 | 11.3 | 14.5 | 0.00 | 0.00 | 0.00 | 64 | 1015.9 |
| 20260507014005 | 8 | 199 | 11.3 | 14.5 | 0.00 | 0.00 | 0.00 | 64 | 1015.9 |
| 20260507013005 | 8 | 199 | 11.3 | 14.5 | 0.00 | 0.00 | 0.00 | 64 | 1015.9 |
| 20260507012005 | 8 | 199 | 11.3 | 14.5 | 0.00 | 0.00 | 0.00 | 64 | 1015.9 |
| 20260507011005 | 8 | 199 | 11.3 | 14.5 | 0.00 | 0.00 | 0.00 | 64 | 1015.9 |
| 20260507010006 | 8 | 199 | 11.3 | 14.5 | 0.00 | 0.00 | 0.00 | 64 | 1015.9 |
| 20260507005006 | 8 | 199 | 11.3 | 14.5 | 0.00 | 0.00 | 0.00 | 64 | 1015.9 |
| 20260507004006 | 8 | 199 | 11.3 | 14.5 | 0.00 | 0.00 | 0.00 | 64 | 1015.9 |
| 20260507002005 | 8 | 199 | 11.3 | 14.5 | 0.00 | 0.00 | 0.00 | 64 | 1015.9 |
| 20260507001005 | 8 | 199 | 11.3 | 14.5 | 0.00 | 0.00 | 0.00 | 64 | 1015.9 |
| 20260506235006 | 8 | 199 | 11.3 | 14.5 | 0.00 | 0.00 | 0.00 | 64 | 1015.9 |
| 20260506234005 | 8 | 199 | 11.3 | 14.5 | 0.00 | 0.00 | 0.00 | 64 | 1015.9 |
| 20260506233006 | 8 | 199 | 11.3 | 14.5 | 0.00 | 0.00 | 0.00 | 64 | 1015.9 |
| 20260506232006 | 8 | 199 | 11.3 | 14.5 | 0.00 | 0.00 | 0.00 | 64 | 1015.9 |
| 20260506231006 | 8 | 199 | 11.3 | 14.5 | 0.00 | 0.00 | 0.00 | 64 | 1015.9 |
| 20260506230006 | 8 | 199 | 11.3 | 14.5 | 0.00 | 0.00 | 0.00 | 64 | 1015.9 |